Weather in Ogodzha

Russia / Amur Oblast     52°45′57″N   132°32′27″E
temp.,
°C
wind,
m/s
gust,
m/s
humid.,
%
clouds,
%
prec.,
mm/h
press.,
hPa
HPBL,
m
18 may, tue
tue1800:00+5e1174100 0.1 100110
03:00+4nne1297100 2.4 100085
06:00+3ne1398100 8.0 999292
09:00+4n1192100 11.2 999316
12:00+7w1389100 0.0 999489
15:00+7wsw2692100 0.4 999552
18:00+7w2692100 0.6 1000513
21:00+4sw229511 1.4 100332
19 may, wed
wed1900:00+2ssw339119 0.0 100442
03:000s22921 0.0 100531
06:00+2sw118676 0.0 1006102
09:00+6wnw3548100 0.0 10061340
12:00+8wsw254686 0.1 10061522
15:00+10wnw35355 0.1 10052192
18:00+10w223223 0.0 10051952
21:00+4ese1152100 0.0 100811
20 may, thu
thu2000:00+3e2264100 0.0 100533
03:00+2ese2273100 0.0 100145
06:00+3e2596100 6.4 999222
09:00+4nw1398100 9.9 998276
12:00+5wsw4996100 1.1 1002789
15:00+7w4785100 1.4 1004992
18:00+6w2576100 0.0 1008457
21:00+3se1190100 0.1 101013
21 may, fri
fri2100:00+1se11935 0.0 101012
03:00+1ese1189100 0.0 101110
06:00+3nne1184100 0.1 101099
09:00+4wsw2792100 0.6 1011754
12:00+5w1492100 0.1 1011635
15:00+8n226780 0.1 1010989
18:00+7ne3565100 0.0 1011521
21:00+2ese2290100 0.4 101324
22 may, sat
sat2200:000e22945 0.0 101321
03:000ene2293100 0.0 101248
06:00+2ene2287100 0.1 1011103
09:00+8ene2473100 0.3 1008502
12:00+8ne4788100 1.3 1007404
15:00+9ene358265 5.0 1006464
18:00+13ene367015 0.0 1002393
21:00+6e23955 0.3 100360